カタログに戻る

CZ-4 DEB

運用中SSO
NORAD 26199·DEBRIS·🇨🇳 China

打ち上げ Oct 14, 1999 から Taiyuan Satellite Launch Center

Loading…

次のパス (今後24時間)

TLE

最新Source: Space-Track

元期: Sep 14, 2026, 11:09 UTC

1 26199U 99057CM  26257.46496708  .00002514  00000-0  40995-3 0  9995
2 26199  98.3388 333.7671 0059676 326.6728  96.7271 14.70734952399190

AllMySatでCZ-4 DEBをリアルタイム追跡

Download on the App Store